Flag for Israel Weather past 2 weeks in Rishon LeZion, Israel

Now
90 °F

Passing clouds.


Feels Like: 95 °F
Forecast: 72 / 89 °F
Wind: 6 mph from West

Location: Ben Gurion International Airport

Current Time: Aug 1, 2014 at 11:56:01 AM

Latest Report: Aug 1, 2014 at 11:20 AM


Visibility: N/A

Pressure: 29.74 "Hg

Humidity: 52%

Dew point: 70 °F

Location of Rishon LeZionLocation

Historic Weather in Rishon LeZion — Graph

°F

Rishon LeZion temperature yesterday

Maximum temperature yesterday: 90 °F (at 1:50 PM)
Minimum temperature yesterday: 75 °F (at 2:20 AM)
Average temperature yesterday: 82 °F

Past Weeks' High & Low Weather Summary

 TemperatureHumidityPressure
High91 °F (Jul 30, 11:20 AM)89% (Jul 24, 3:20 AM)29.92 "Hg (Jul 24, 3:20 AM)
Low72 °F (Jul 26, 5:50 AM)46% (Jul 17, 5:20 PM)29.71 "Hg (Jul 25, 3:20 PM)
Average81 °F67%29.79 "Hg
* Reported Jul 17 10:20 AM — Aug 1 10:50 AM, Rishon LeZion, Weather by CustomWeather, © 2014

Note: Actual official high and low records may vary slightly from our data, if they occured in-between our weather recording intervals... More about our weather records

Advertising

Rishon LeZion weather history for previous 24 hours

 ConditionsComfort  
Time TempWeatherWind HumidityBarometerVisibility
10:50 AM
Aug 1
88 °FSunny.5 mph52%29.74 "Hg10 mi
10:20 AM86 °FSunny.3 mph55%29.74 "Hg10 mi
9:50 AM84 °FSunny.3 mph58%29.77 "Hg10 mi
9:20 AM82 °FPassing clouds.2 mph66%29.74 "HgN/A
8:50 AM82 °FSunny.3 mph62%29.77 "Hg10 mi
8:20 AM81 °FPassing clouds.6 mph66%29.77 "HgN/A
7:50 AM79 °FPassing clouds.7 mph70%29.74 "HgN/A
7:20 AM75 °FPassing clouds.9 mph78%29.74 "HgN/A
6:50 AM75 °FPassing clouds.7 mph78%29.74 "HgN/A
6:20 AM73 °FPassing clouds.7 mph78%29.74 "HgN/A
5:50 AM73 °FPassing clouds.7 mph78%29.74 "HgN/A
5:20 AM73 °FPassing clouds.7 mph83%29.74 "HgN/A
4:50 AM75 °FPassing clouds.7 mph78%29.74 "HgN/A
4:20 AM75 °FPassing clouds.7 mph78%29.74 "HgN/A
3:50 AM75 °FPassing clouds.6 mph78%29.74 "HgN/A
3:20 AM75 °FPassing clouds.5 mph78%29.74 "HgN/A
2:50 AM75 °FPassing clouds.5 mph78%29.74 "HgN/A
2:20 AM75 °FClear.3 mph78%29.74 "Hg10 mi
1:50 AM75 °FClear.5 mph78%29.74 "Hg10 mi
1:20 AM77 °FClear.5 mph74%29.74 "Hg10 mi
12:50 AM77 °FClear.5 mph74%29.74 "Hg10 mi
12:20 AM77 °FClear.3 mph79%29.74 "Hg10 mi
11:50 PM
Jul 31
77 °FClear.1 mph74%29.74 "Hg10 mi
11:20 PM77 °FClear.2 mph79%29.74 "Hg10 mi
10:50 PM79 °FClear.3 mph74%29.74 "Hg10 mi
10:20 PM79 °FClear.3 mph74%29.74 "Hg10 mi
9:50 PM79 °FClear.3 mph74%29.74 "Hg10 mi
9:20 PM79 °FClear.5 mph74%29.74 "Hg10 mi
8:50 PM81 °FClear.6 mph70%29.74 "Hg10 mi
8:20 PM81 °FSunny.6 mph70%29.74 "Hg10 mi
7:50 PM81 °FPassing clouds.6 mph70%29.74 "HgN/A
7:20 PM82 °FPassing clouds.8 mph66%29.74 "HgN/A
6:50 PM84 °FSunny.12 mph62%29.74 "Hg10 mi
6:20 PM86 °FSunny.9 mph59%29.74 "Hg10 mi
5:50 PM86 °FSunny.12 mph59%29.71 "Hg10 mi
5:20 PM88 °FPassing clouds.10 mph55%29.71 "HgN/A
4:50 PM88 °FPassing clouds.10 mph55%29.74 "HgN/A
4:20 PM88 °FSunny.12 mph55%29.74 "Hg10 mi
3:50 PM88 °FPassing clouds.12 mph55%29.74 "HgN/A
3:20 PM88 °FSunny.13 mph55%29.74 "Hg10 mi
2:50 PM88 °FSunny.12 mph55%29.74 "Hg10 mi
2:20 PM88 °FSunny.10 mph55%29.74 "Hg10 mi
1:50 PM90 °FPassing clouds.10 mph52%29.74 "HgN/A
1:20 PM88 °FPassing clouds.10 mph52%29.74 "HgN/A
12:50 PM88 °FPassing clouds.10 mph55%29.74 "HgN/A
12:20 PM88 °FPassing clouds.12 mph55%29.77 "HgN/A
11:50 AM88 °FPassing clouds.9 mph52%29.77 "HgN/A
11:20 AM88 °FPassing clouds.8 mph52%29.77 "HgN/A
Weather by CustomWeather, © 2014

See weather overviewHow to use our weather pages